Lexington Weather

Lexington, Massachusetts, USA

48°F
12/8/2022 3:20pm 
  • Lexington Conditions: Clear
  • Temperature: 47.7°F / 8.7°CColder 1.6°F than last hour.
  • Dew Point: 35.2°FDecreased 0.8°Fsince last hour.
  • Relative Humidity: 62%Increased 2.0% since last hour.
  • Wind: Wind from N N 3 mph, 10-min avg: 2 mph, gust: 8 mph
  • Barometer: 30.09 inRising 0.03  inHg/hr Rising Slowly
  • Visibility: 10 miles
  • Rain Today: 0.00 in
  •   

Regional Weather Roundup
for Boston, MA

        
000
ASUS41 KBOX 061810
RWRBOX

REGIONAL WEATHER ROUNDUP
NATIONAL WEATHER SERVICE BOSTON/NORTON MA
100 PM EST TUE DEC 06 2022

NOTE:  "FAIR" INDICATES FEW OR NO CLOUDS BELOW 12,000 FEET WITH NO 
SIGNIFICANT WEATHER AND/OR OBSTRUCTIONS TO VISIBILITY.

MAZALL-061900-
EASTERN MASSACHUSETTS
  
CITY           SKY/WX    TMP DP  RH WIND       PRES   REMARKS
BOSTON         CLOUDY    52  44  74 E7        30.40F                  
6HR MIN TEMP:  44; 6HR MAX TEMP:  54;                                

BEVERLY        NOT AVBL                                               
LAWRENCE       PTSUNNY   54  43  66 SE6       30.40F                  
BEDFORD        PTSUNNY   56  43  61 SE9       30.37F                  
NORWOOD        PTSUNNY   58  42  55 SE8G17    30.39F                  
MARSHFIELD       N/A     54  45  71 SE13G20   30.41S                  
PLYMOUTH       PTSUNNY   56  42  59 SE9       30.40S                  
TAUNTON          N/A    N/A N/A N/A MISG      30.39F                  
NEW BEDFORD    PTSUNNY   56  46  69 SE14G21   30.39F                  
$$

MAZALL-061900-
CAPE COD AND THE ISLANDS
  
CITY           SKY/WX    TMP DP  RH WIND       PRES   REMARKS
FALMOUTH       SUNNY     54  46  76 SE14G25   30.41S                  
HYANNIS        PTSUNNY   53  47  79 SE10      30.41R                  
CHATHAM        PTSUNNY   55  48  77 SE9       30.43S                  
PROVINCETOWN   PTSUNNY   54  46  74 SE10      30.43S                  
NANTUCKET      PTSUNNY   57  50  77 SE18      30.41S                  
MARTHAS VNYRD  PTSUNNY   56  47  71 SE15G24   30.41R                  
$$
 
MAZALL-061900-
CENTRAL AND WESTERN MASSACHUSETTS
  
CITY           SKY/WX    TMP DP  RH WIND       PRES   REMARKS
WORCESTER      CLOUDY    53  43  68 SE16      30.36S                  
6HR MIN TEMP:  43; 6HR MAX TEMP:  53;                                

FITCHBURG      PTSUNNY   48  38  68 CALM      30.39S                  
ORANGE         CLOUDY    49  43  80 CALM      30.35S                  
SPRINGFIELD    NOT AVBL                                               
WESTFIELD      LGT RAIN  42  38  85 NW6       30.34F                  
NORTH ADAMS    LGT RAIN  50  45  83 E10       30.30F                  
PITTSFIELD     CLOUDY    48  44  86 SE12G20   30.28F                  
$$
 
RIZALL-061900-
RHODE ISLAND
  
CITY           SKY/WX    TMP DP  RH WIND       PRES   REMARKS
PROVIDENCE     PTSUNNY   55  46  71 S10       30.38F                  
6HR MIN TEMP:  34; 6HR MAX TEMP:  55;                                

NEWPORT        NOT AVBL                                               
BLOCK ISLAND   PTSUNNY   55  49  80 SE16G22   30.37F                  
SMITHFIELD     PTSUNNY   54  46  74 S8G18     30.38F                  
WESTERLY       PTSUNNY   56  50  80 SE9       30.36F                  
$$
 
CTZALL-061900-
CONNECTICUT
  
CITY           SKY/WX    TMP DP  RH WIND       PRES   REMARKS
BRADLEY INTL   LGT RAIN  46  41  82 CALM      30.34F                  
6HR MIN TEMP:  35; 6HR MAX TEMP:  46; 6HR PCP: TRACE;                

HARTFORD       CLOUDY    50  42  74 N3        30.34F                  
BRIDGEPORT     CLOUDY    56  48  74 SE12      30.31S                  
DANBURY        CLOUDY    55  47  74 VRB3      30.31F                  
GROTON         CLOUDY    58  50  75 SE14      30.35S                  
NEW HAVEN      CLOUDY    57  49  74 SE8       30.32S                  
CHESTER        NOT AVBL                                               
MERIDEN        CLOUDY    49  39  68 CALM      30.33F                  
WILLIMANTIC    CLOUDY    57  44  62 S9        30.35S                  
OXFORD         CLOUDY    53  47  79 SE10      30.32S                  
$$

MEZ002-015-021-024-NHZ003-005-008-011-012-014-VTZ005-008-061900-
NORTHERN NEW ENGLAND
  
CITY           SKY/WX    TMP DP  RH WIND       PRES   REMARKS
PORTLAND ME    MOSUNNY   51  42  71 SE12G20   30.46S                  
6HR MIN TEMP:  39; 6HR MAX TEMP:  51;                                

BANGOR ME      CLOUDY    49  40  71 SE10      30.50S                  
CONCORD NH     PTSUNNY   51  42  71 SE10      30.39F                  
MANCHESTER NH  CLOUDY    52  42  69 SE6       30.38F                  
NASHUA NH      PTSUNNY   49  45  86 CALM      30.40F                  
PORTSMOUTH NH  CLOUDY    51  44  76 SE16      30.40F                  
JAFFREY NH     CLOUDY    49  41  74 VRB3      30.35F                  
KEENE NH       LGT RAIN  49  42  77 SE5         N/A                   
BURLINGTON VT  LGT RAIN  45  42  89 S3        30.27F FOG              
MT. WASHINGTON FRZ RAIN  27  27 100 S38         N/A  VSB 0   WCI   9  
$$

NYZ052-076-061900-
EASTERN NEW YORK
  
CITY           SKY/WX    TMP DP  RH WIND       PRES   REMARKS
ALBANY         CLOUDY    45  41  86 CALM      30.27F                  
6HR MIN TEMP:  42; 6HR MAX TEMP:  45; 6HR PCP:  0.02;                

NEW YORK CITY  LGT RAIN  57  50  77 SE12      30.28F                  
6HR MIN TEMP:  46; 6HR MAX TEMP:  58; 6HR PCP: TRACE;                

$$
 
ANZALL-061900-
MARINE OBSERVATIONS
  
STATION/POSITION TIME  TEMP    WIND        PRES    VSBY  WAVE
                       AIR SEA DIR/SP/G                  HT/PER
                 (UTC) (F)     (DEG/KT/KT) (MB)    (MI)  (FT/S)
BOSTON BUOY      1750      51  140/ 14/ 17 1030.2F         3/ 5
BUZZARDS BAY     1700   53     130/ 16/ 17 1029.4S
NANTUCKET SOUND  1750   51 49  120/ 14/ 16 1029.7R         2/ 3
MASS BAY-STELLWA 1604   51 50  140/ 14/ 17 1029.7F  1 7/8  4/ 5
ISLE OF SHOALS   1700   50     140/ 17/ 19 1029.6F
S OF BLOCK IS    1756      54                N/A           5/ 5
$$

......................KEY.........................
  SKY/WX - SKY CONDITION/PRESENT WEATHER
  TMP    - TEMPERATURE IN FAHRENHEIT
  DWPT   - DEWPOINT IN FAHRENHEIT
  RH     - RELATIVE HUMIDITY IN PERCENT
  WIND   - DIRECTION AND SPEED IN MPH
  PRES   - MEAN SEA LEVEL PRESSURE IN INCHES OF HG
  WCI    - WIND CHILL INDEX
  VSB    - VISIBILITY IN MILES
  HX     - HEAT INDEX
  TC     - TEMPERATURE IN CELSIUS
  VRB    - VARIABLE WIND DIRECTION
  N/A    - NOT AVAILABLE
  
      

Other recent Regional Weather Roundups

Thu Dec 8, 3:10pm

Thu Dec 8, 2:10pm

Thu Dec 8, 1:10pm

Thu Dec 8, 12:10pm

Thu Dec 8, 11:10am

Thu Dec 8, 10:10am

Thu Dec 8, 9:10am

Thu Dec 8, 8:10am

Thu Dec 8, 7:10am

Thu Dec 8, 6:10am

Thu Dec 8, 5:10am

Thu Dec 8, 4:10am

Thu Dec 8, 3:10am

Thu Dec 8, 2:10am

Thu Dec 8, 1:10am

Thu Dec 8, 12:10am

Wed Dec 7, 11:10pm

Wed Dec 7, 10:10pm

Wed Dec 7, 9:10pm

Wed Dec 7, 8:10pm

Wed Dec 7, 7:10pm

Wed Dec 7, 6:10pm

Wed Dec 7, 5:10pm

Wed Dec 7, 4:10pm

Wed Dec 7, 3:10pm

Wed Dec 7, 2:10pm

Wed Dec 7, 1:10pm

Wed Dec 7, 12:10pm

Wed Dec 7, 11:10am

Wed Dec 7, 10:10am

Wed Dec 7, 9:10am

Wed Dec 7, 8:10am

Wed Dec 7, 7:10am

Wed Dec 7, 6:10am

Wed Dec 7, 5:10am

Wed Dec 7, 4:10am

Wed Dec 7, 3:10am

Wed Dec 7, 2:10am

Wed Dec 7, 1:10am

Wed Dec 7, 12:10am

Tue Dec 6, 11:10pm

Tue Dec 6, 10:10pm

Tue Dec 6, 9:10pm

Tue Dec 6, 8:10pm

Tue Dec 6, 7:10pm

Tue Dec 6, 6:10pm

Tue Dec 6, 5:10pm

Tue Dec 6, 4:10pm

Tue Dec 6, 3:10pm

Tue Dec 6, 2:10pm

Tue Dec 6, 12:10pm

Tue Dec 6, 11:10am

Tue Dec 6, 10:10am

Tue Dec 6, 9:10am

Tue Dec 6, 8:10am

Tue Dec 6, 7:10am

Tue Dec 6, 6:10am

Tue Dec 6, 5:10am

Tue Dec 6, 4:10am

Tue Dec 6, 3:10am

Tue Dec 6, 2:10am

Tue Dec 6, 1:10am

Tue Dec 6, 12:10am

Mon Dec 5, 11:10pm

Mon Dec 5, 10:10pm

Mon Dec 5, 9:10pm

Mon Dec 5, 8:10pm

Mon Dec 5, 7:10pm

Mon Dec 5, 6:10pm

Mon Dec 5, 5:10pm

Mon Dec 5, 4:10pm

Mon Dec 5, 3:10pm

Mon Dec 5, 2:10pm

Mon Dec 5, 1:10pm

Mon Dec 5, 12:10pm

Mon Dec 5, 11:10am

Mon Dec 5, 10:10am

Mon Dec 5, 9:10am

Mon Dec 5, 8:10am

Mon Dec 5, 7:10am

Mon Dec 5, 6:10am

Mon Dec 5, 5:10am

Mon Dec 5, 4:10am

Mon Dec 5, 3:10am

Mon Dec 5, 2:10am

Mon Dec 5, 1:10am

Mon Dec 5, 12:10am

Sun Dec 4, 11:10pm

Sun Dec 4, 10:10pm

Sun Dec 4, 9:10pm

Sun Dec 4, 8:10pm

Sun Dec 4, 7:10pm

Sun Dec 4, 6:10pm

Sun Dec 4, 5:10pm

Sun Dec 4, 4:10pm

Sun Dec 4, 3:10pm

Sun Dec 4, 2:10pm

Sun Dec 4, 1:10pm

Sun Dec 4, 12:10pm

Sun Dec 4, 11:10am

Sun Dec 4, 10:10am

Sun Dec 4, 9:10am

Sun Dec 4, 8:10am

Sun Dec 4, 7:10am

Sun Dec 4, 6:10am

Sun Dec 4, 5:10am

Sun Dec 4, 4:10am

Sun Dec 4, 3:10am

Sun Dec 4, 2:10am

Sun Dec 4, 1:10am

Sun Dec 4, 12:10am

Sat Dec 3, 11:10pm

Sat Dec 3, 10:10pm

Sat Dec 3, 9:10pm

Sat Dec 3, 8:10pm

Sat Dec 3, 7:10pm

Sat Dec 3, 6:10pm

Sat Dec 3, 5:10pm

Sat Dec 3, 4:10pm

Sat Dec 3, 3:10pm

Sat Dec 3, 2:10pm

Sat Dec 3, 1:10pm

Sat Dec 3, 12:10pm

Sat Dec 3, 11:10am

Sat Dec 3, 10:10am

Sat Dec 3, 9:10am

Sat Dec 3, 8:10am

Sat Dec 3, 7:10am

Sat Dec 3, 6:10am

Sat Dec 3, 5:10am

Sat Dec 3, 4:10am

Sat Dec 3, 3:10am

Sat Dec 3, 2:10am

Sat Dec 3, 1:10am

Sat Dec 3, 12:10am

Fri Dec 2, 11:10pm

Fri Dec 2, 10:10pm

Fri Dec 2, 9:10pm

Fri Dec 2, 8:10pm

Fri Dec 2, 7:10pm

Fri Dec 2, 6:10pm

Fri Dec 2, 5:10pm

Fri Dec 2, 4:10pm

Fri Dec 2, 3:10pm

Fri Dec 2, 2:10pm

Fri Dec 2, 1:10pm

Fri Dec 2, 12:10pm

Fri Dec 2, 11:10am

Fri Dec 2, 10:10am

Fri Dec 2, 9:10am

Fri Dec 2, 8:10am

Fri Dec 2, 7:10am

Fri Dec 2, 6:10am

Fri Dec 2, 5:10am

Fri Dec 2, 4:10am

Fri Dec 2, 3:10am

Fri Dec 2, 2:10am

Fri Dec 2, 1:10am

Fri Dec 2, 12:10am

Thu Dec 1, 11:10pm

Thu Dec 1, 10:10pm

Thu Dec 1, 9:10pm

Thu Dec 1, 8:10pm

Thu Dec 1, 7:10pm

Thu Dec 1, 6:10pm

Thu Dec 1, 5:10pm

Thu Dec 1, 4:10pm

Meta data:

ID: c9c72d08-3bc6-449d-aa34-8fb7e71ac114
Link: https://api.weather.gov/products/c9c72d08-3bc6-449d-aa34-8fb7e71ac114